Showing default

GUANGCHUAN 01, 62111

Orbit data source: Space-Track

GUANGCHUAN 01, 62111 is a payload satellite owned by Hongqing Keji (CN) in LEO that was launched on Wed, 27 Nov 2024 UTC via a ZHUQUE-2E launch vehicle from the Jiuquan Satellite Launch Center, China (JSC). Payload-class satellites include a variety of spacecraft equipped with specific instruments for various scientific and technological missions. These include communications satellites like Starlink; space stations such as the ISS; scientific satellites like the Hubble; Earth observation satellites from companies like Planet Labs, Umbra, and HawkEye 360; GPS; miniature CubeSats for education and research; and military/defense satellites.

Loading next visibility...
Identifier
62111, 2024-221A
Orbit
LEO
Country
Flag of CNCN / PRC
Related business
Manufacturer
CAST?
Mission
Operational Commercial Communications
Bus & Motor
HQ, Unknown motor
Mass
~500 kg wet, ~500 kg dry
Launch date (UTC)
2024-11-27 (2 years ago)
Launch vehicle
ZHUQUE-2E
Launch site
Jiuquan Satellite Launch Center, China (JSC)
Object type
Payload
Rocket body
Debris
Shape & HBR
Box + 2 Pan, 3.0 m
Radar Cross Section
4.560 m², Large (>1 m²)

Expand to show TLE details & history
Last TLE update: 10 hours ago

TLE from 10 hours ago
0 GUANGCHUAN 01
1 62111U 24221A   26236.57499829  .00002024  00000-0  12294-3 0  9993
2 62111  49.9429 189.1021 0007011 219.3439 140.7003 15.15017710 96550
Epoch: 2026-08-24T13:47Z
TLE epoch observation values (Epoch: 2026-08-24T13:47:59.852Z)
Latitude
-0.00001°
Longitude
9.24797°
Altitude
525.214 km
Speed
7.6 km/s
True Right ascension
12h 36m 24s
True Declination
0° 00' 00"
Sunlit
Object was in daylight at epoch
Visualization orbit readout
Latitude
Unknown
Longitude
Unknown
Altitude
Unknown
Speed
Unknown
Apparent Right ascension
Unknown
Apparent Declination
Unknown
Sunlit
N/A
Visualization observer readout
Local Sidereal Time
14:55:12
Azimuth
Unknown
Elevation
Unknown
Doppler factor
Unknown
Orbital elements
Apogee altitude
526.541 km
Perigee altitude
516.866 km
Semi-major axis
6,899.84 km
Eccentricity
0.0007
Inclination
49.9429°
RAAN
189.1021°
Arg. of periapsis
219.3439°
True anomaly
140.75115°
Mean anomaly
140.7003°
Eccentric anomaly
140.72573°
Mean motion
3.78691 °/min
Orbital period
95.06 mins
BSTAR
0.00012294
Loading maneuver chart data...
Computing Atmospheric mass density...
Loading historical data...
Loading historical data...
Loading historical data...
Loading historical data...
Loading historical data...
Loading historical data...
Loading historical data...
Other satellites on launch #221 in the year 2024 (2024-11-27 UTC)

Documentation

Showing up to 5 results
|